SL-12 DEB, 41560

Orbit data source: Space-Track

SL-12 DEB, 41560 is space debris in HEO originally from a launch on Thu, 25 Dec 2008 UTC launched from the Tyuratam Missile And Space Complex (TTMTR). Debris objects in space refer to the collection of defunct objects orbiting the Earth. Examples of debris include non-operational satellites, rocket bodies, and fragments generated from explosions, collisions, or faulty payload assembly.

Loading next visibility...
Identifier
41560, 2008-067J
Orbit
HEO
Country
Flag of CISCIS
Related business
Manufacturer
RKKE
Mission
Spacecraft
Bus & Motor
Unknown
Mass
Unknown
Launch date (UTC)
2008-12-25 (17 years ago)
Launch vehicle
Unknown
Launch site
Tyuratam Missile And Space Complex (TTMTR)
Object type
Payload
Rocket body
Debris
Shape & HBR
Unknown shape, 0.8 m
Radar Cross Section
Medium (>0.1 m² and <1 m²)

Expand to show TLE details & history
Last TLE update: 3 days ago

TLE from 3 days ago
0 SL-12 DEB
1 41560U 08067J   26170.28178380  .00000135  00000-0  69368-3 0  9994
2 41560  65.2847 181.0925 5620060 236.9051  56.5748  4.23001950157777
Epoch: 2026-06-19T06:45Z
TLE epoch observation values (Epoch: 2026-06-19T06:45:46.120Z)
Latitude
0.00002°
Longitude
172.12536°
Altitude
9,576.406 km
Speed
5.029 km/s
True Right ascension
12h 04m 19s
True Declination
0° 00' 00"
Sunlit
Object was in daylight at epoch
Visualization orbit readout
Latitude
Unknown
Longitude
Unknown
Altitude
Unknown
Speed
Unknown
Apparent Right ascension
Unknown
Apparent Declination
Unknown
Sunlit
N/A
Visualization observer readout
Local Sidereal Time
21:38:23
Azimuth
Unknown
Elevation
Unknown
Doppler factor
Unknown
Orbital elements
Apogee altitude
18,846.548 km
Perigee altitude
694.986 km
Semi-major axis
16,148.904 km
Eccentricity
0.56201
Inclination
65.2847°
RAAN
181.0925°
Arg. of periapsis
236.9051°
True anomaly
123.16934°
Mean anomaly
56.5748°
Eccentric anomaly
88.76793°
Mean motion
1.05762 °/min
Orbital period
340.39 mins
BSTAR
0.00069368
Loading maneuver chart data...
Computing Atmospheric mass density...
Loading historical data...
Loading historical data...
Loading historical data...
Loading historical data...
Loading historical data...
Loading historical data...
Loading historical data...

Documentation

Showing up to 5 results
|